Orbital Elements at Epoch 2459200.5 (2020-Dec-17.0) TDB
Reference: JPL 15 (heliocentric ecliptic J2000)
Element | Value | Uncertainty (1-sigma) | Units |
e | .09323059237187085 | 4.4899e-08 | |
a | 3.016820035982859 | 2.5021e-08 | au |
q | 2.735560116948849 | 1.366e-07 | au |
i | 1.643849982788284 | 4.2292e-06 | deg |
node | 276.6841772597128 | 0.00017984 | deg |
peri | 22.3141990194181 | 0.00018286 | deg |
M | 45.44848024671897 | 3.0264e-05 | deg |
tp | 2458958.876374160125 (2020-Apr-19.37637416) | 0.00016189 | TDB |
period | 1913.914499014182 5.24 | 2.3811e-05 6.519e-08 | d yr |
n | .1880961768069726 | 2.3401e-09 | deg/d |
Q | 3.29807995501687 | 2.7354e-08 | au |
|
| | Orbit Determination Parameters
Additional Information
|